www.pogodaiklimat.ru

Погода и климат >> Архив погоды >> Россия >> Красноярский край >> Туруханск


ПОГОДА в Туруханске

АРХИВ ПОГОДЫ в Туруханске

Время (UTC), дата Ветер
(напр.,м/с)
 
Видим.   Явления Облачность Т
(С)
Тd
(С)
f
(%)
Тe
(С)
Тes
(С)
Комфортность P
(гПа)
Po
(гПа)
Тmin
(С)
Tmax
(С)
R
(мм)
R24
(мм)
S
(см)
15 15.02 ЮВ 1 10 км слабый снег 9/4 600 м
[Sc Cs]
-21.5 -24.0 80 -25 -25 1025.8 1020.0
18 15.02 В 1 10 км слабый снег 9/3 600 м
[Sc Cs]
-23.3 -25.8 80 -27 -27 1025.8 1019.9
21 15.02 В 2 10 км слабый снег 9/0
[Cs]
-29.0 -31.4 80 -36 -36 опасность
обморожения
1025.9 1019.9
00 16.02 В 2 10 км слабый снег 9/0
[Cs]
-27.5 -30.0 79 -35 -35 опасность
обморожения
1025.9 1020.0 -29.4 0.3 113
03 16.02 В 2 2000 м ливневой снег 9/4 300 м
[Cb cap Cs]
-27.4 -29.8 80 -34 -34 опасность
обморожения
1025.7 1019.8 -30.4
06 16.02 Ю 3 4000 м слабый ливневой снег 9/3 300 м
[Cb cap Ci fib]
-22.8 -25.3 80 -31 -30 опасность
обморожения
1025.5 1019.6
09 16.02 Ю 3 2000 м ливневой снег 9/4 300 м
[Cb cap Cs]
-20.5 -23.1 80 -28 -28 1025.9 1020.1
12 16.02 Ю 1 4000 м слабый ливневой снег 9/6 300 м
[Cb cap Cs]
-20.1 -22.7 80 -23 -23 1026.2 1020.4 -19.9 2
15 16.02 Ю 3 4000 м слабый ливневой снег 9/8 300 м
[Cb cap Cs]
-19.0 -21.6 80 -26 -26 1026.0 1020.2
18 16.02 Ю 5 10 км слабый ливневой снег {метель} 9/8 300 м
[Cb cap Cs]
-18.7 -21.3 80 -28 -28 1025.1 1019.3
21 16.02 ЮВ 1 10 км слабый ливневой снег {метель} 9/6 300 м
[Cb cap Cs]
-18.9 -21.5 80 -22 -22 1024.7 1018.9
00 17.02 Ю 3 4000 м слабый ливневой снег {метель} 10/10 300 м
[Cb cap]
-17.6 -20.2 80 -25 -25 1024.3 1018.6 -20.3 0.5 111
03 17.02 Ю 2 4000 м слабый ливневой снег 9/5 300 м
[Cb cap Cs]
-17.7 -20.3 80 -23 -23 1024.4 1018.6
06 17.02 Ю 3 4000 м слабый ливневой снег {метель} 9/6 300 м
[Cb cap Cs]
-17.4 -20.0 80 -24 -24 1023.8 1018.1
09 17.02 Ю 4 4000 м слабый ливневой снег {метель} 9/5 300 м
[Cb cap Cs]
-16.0 -18.7 80 -24 -24 1023.5 1017.8
12 17.02 Ю 3 1000 м ливневой снег {метель} 9/8 300 м
[Cb cap Cs]
-16.2 -18.1 85 -23 -23 1023.9 1018.2 -15.8 2
15 17.02 Ю 3 4000 м слабый ливневой снег {метель} 9/8 300 м
[Cb cap Cs]
-18.0 -19.9 85 -25 -25 1024.4 1018.6
18 17.02 ЮВ 1 4000 м слабый ливневой снег {метель} 9/8 300 м
[Cb cap Cs]
-19.4 -21.3 85 -22 -22 1024.0 1018.2
21 17.02 В 2 4000 м слабый ливневой снег 9/8 300 м
[Cb cap Cs]
-18.7 -20.6 85 -24 -24 1023.5 1017.7
00 18.02 Ю 4 4000 м слабый ливневой снег {метель} 10/10 300 м
[Cb cap]
-17.2 -19.1 85 -25 -25 1022.9 1017.2 -19.6 1 113
03 18.02 Ю 5 10 км слабый ливневой снег {метель} 9/8 300 м
[Cb cap Cs]
-17.8 -19.7 85 -27 -27 1023.0 1017.2
06 18.02 Ю 4 4000 м слабый ливневой снег {метель} 9/8 300 м
[Cb cap Cs]
-16.8 -18.7 85 -25 -25 1022.2 1016.5
09 18.02 Ю 3 10 км слабый ливневой снег {метель} 9/4 300 м
[Cb cap Cs]
-16.7 -19.3 80 -24 -24 1021.7 1016.0
12 18.02 ЮВ 2 10 км слабый ливневой снег {метель} 9/8 300 м
[Cb cap Cs]
-19.3 -21.9 80 -25 -25 1021.8 1016.0 -16.5 0.9
15 18.02 Ю 4 4000 м слабый ливневой снег {метель} 9/8 300 м
[Cb cap Cs]
-18.4 -21.0 80 -27 -27 1020.5 1014.8
18 18.02 ЮВ 3 2000 м ливневой снег {метель} 9/8 300 м
[Cb cap Cs]
-16.8 -19.4 80 -24 -24 1019.2 1013.6
21 18.02 ЮВ 3 2000 м ливневой снег {метель} 10/10 300 м
[Cb cap]
-15.7 -18.4 80 -22 -22 1018.1 1012.5
00 19.02 ЮВ 3 2000 м ливневой снег {метель} 10/10 300 м
[Cb cap]
-15.2 -17.2 85 -22 -22 1016.5 1010.9 -20.0 1 113
03 19.02 Ю 5 2000 м ливневой снег {метель} 9/8 300 м
[Cb cap Cs]
-16.3 -18.9 80 -25 -25 1016.4 1010.8
06 19.02 Ю 4 4000 м слабый ливневой снег {метель} 9/8 300 м
[Cb cap Cs]
-15.8 -18.5 80 -24 -24 1015.9 1010.3
09 19.02 Ю 3 10 км слабый ливневой снег {метель} 9/8 300 м
[Cb cap Cs]
-15.6 -18.3 80 -22 -22 1016.1 1010.5
12 19.02 ЮВ 1 10 км слабый ливневой снег {метель} 9/5 300 м
[Cb cap Cs]
-16.8 -18.7 85 -20 -20 1016.8 1011.2 -15.0 1
15 19.02 В 1 4000 м слабый ливневой снег 9/8 300 м
[Cb cap Cs]
-19.8 -21.7 85 -23 -23 1016.9 1011.2
18 19.02 штиль 0 10 км слабый ливневой снег 9/5 300 м
[Cb cap Cs]
-22.9 -25.5 79 -23 -23 1017.2 1011.3
21 19.02 С 1 10 км слабый ливневой снег 9/5 300 м
[Cb cap Cs]
-26.5 -29.0 79 -30 -30 1017.8 1011.9
00 20.02 штиль 0 10 км слабый снег {ливн. осадки} 9/0
[Cs]
-30.8 -33.2 79 -31 -31 опасность
обморожения
1019.3 1013.3 -31.8 0.6 112
03 20.02 В 1 10 км слабый снег 9/3 600 м
[Sc Cs]
-31.5 -33.9 79 -36 -36 опасность
обморожения
1020.3 1014.3 -32.6
06 20.02 Ю 1 50 км {снег} 3/0
[Ci fib]
-26.1 -28.6 79 -30 -28 1021.2 1015.3
09 20.02 З 1 50 км ледяные иглы {снег} 3/0
[Ci fib]
-23.3 -25.8 80 -27 -26 1023.7 1017.8
12 20.02 штиль 0 50 км {снег} 3/0
[Ci fib]
-28.1 -30.5 80 -28 -28 1025.3 1019.3 -23.1 0.0
15 20.02 В 1 20 км 3/0
[Ci fib]
-33.1 -35.4 80 -38 -38 опасность
обморожения
1026.0 1019.8
18 20.02 СВ 1 20 км 3/0
[Ci fib]
-35.2 -38.0 75 -40 -40 опасность
обморожения
1026.7 1020.5
21 20.02 СВ 1 20 км 3/0
[Ci fib]
-36.2 -39.0 75 -41 -41 опасность
обморожения
1027.6 1021.4
00 21.02 штиль 0 20 км 3/0
[Ci fib]
-37.0 -39.8 75 -37 -37 опасность
обморожения
1028.5 1022.3 -37.4 112
03 21.02 штиль 0 20 км 3/0
[Ci fib]
-37.5 -40.5 73 -38 -37 опасность
обморожения
1029.5 1023.1 -38.4
06 21.02 штиль 0 50 км ясно -31.7 -35.5 69 -32 -30 опасность
обморожения
1029.7 1023.7
09 21.02 штиль 0 50 км ясно -27.6 -30.7 75 -28 -27 1030.2 1024.2
12 21.02 штиль 0 50 км ясно -29.7 -32.8 74 -30 -30 1030.3 1024.3 -27.4
15 21.02 штиль 0 50 км ясно -35.2 -38.0 75 -35 -35 опасность
обморожения
1030.7 1024.5
18 21.02 штиль 0 20 км ледяные иглы {снег} ясно -36.2 -39.0 75 -36 -36 опасность
обморожения
1030.3 1024.1
21 21.02 штиль 0 20 км ледяные иглы {снег} ясно -37.1 -40.1 73 -37 -37 опасность
обморожения
1030.1 1023.9
00 22.02 В 1 20 км ледяные иглы {снег} ясно -36.8 -39.8 74 -42 -42 опасность
обморожения
1029.6 1023.4 -37.5 0.0 110
03 22.02 Ю 2 20 км {снег} 8/0
[Ci fib]
-36.5 -39.4 74 -45 -45 опасность
обморожения
1027.7 1021.5
06 22.02 штиль 0 10 км слабый снег 9/0
[Ac trans Cs]
-31.1 -34.1 75 -31 -30 опасность
обморожения
1026.7 1020.7
09 22.02 ЮЗ 1 2000 м слабый снег 10/0
[As op]
-28.7 -31.9 74 -33 -33 опасность
обморожения
1025.7 1019.7
12 22.02 штиль 0 4000 м слабый снег 10/0
[As op]
-28.6 -31.7 75 -29 -29 1024.5 1018.5 -28.4 0.0

 

Местоположение метеостанции Туруханск (Красноярский край, Россия): широта 65.78 долгота 87.93 высота над уровнем моря 38 м.

В архиве по умолчанию представлена погода в Туруханске за последнюю неделю. Архивные данные за месяц целиком и за предыдущие месяцы, начиная с января 2011 года, Вы можете получить, выбрав интересующий диапазон дат из раскрывающегося списка и нажав кнопку "Ввод!".

Внимание! Время в таблицах - всемирное. Для получения местного времени необходимо прибавить поправку, которая в Туруханске равна 7 ч.

Смотрите также архив погоды в соседних городах и на ближайших метеорологических станциях:

Погода в Курейке (Красноярский край, Россия) (83 км)
Погода в Большом Пороге (Эвенкия, Россия) (98 км)
Погода в Светлогорске (Красноярский край, Россия) (132 км)
Погода в Верещагино (Красноярский край, Россия) (174 км)
Погода в Горбиачине (Красноярский край, Россия) (189 км)
Погода в Игарке (Красноярский край, Россия) (197 км)
Погода в Советской Речке (Красноярский край, Россия) (218 км)
Погода в Красноселькупске (Ямало-Ненецкий АО, Россия) (251 км)
Погода в Снежногорске (Красноярский край, Россия) (258 км)
Погода в Агате (Эвенкия, Россия) (276 км)

Пояснения к столбцам:

Ветер - указаны скорость ветра в м/с - средняя за 10 мин, порывы в срок и между сроками (в фигурных скобках) и направление, откуда дует ветер: С - северный, СВ - северо-восточный, В - восточный, ЮВ - юго-восточный, Ю - южный, ЮЗ - юго-западный, З - западный, СЗ - северо-западный.
Видимость - горизонтальная дальность видимости в метрах или километрах. При видимости от 1 до 10 км при отсутствии осадков обычно наблюдается дымка, при ухудшении видимости до 1 км и менее - туман. В сухую погоду видимость может ухудшаться дымом, пылью или мглою.
Явления - указаны атмосферные явления, наблюдавшиеся в срок или в последний час перед сроком; фигурными скобками обозначены явления, наблюдавшиеся между сроками (за 1-3 часа до срока); квадратными скобками обозначены град или гололедные отложения с указанием их диаметра в мм.
Облачность - указаны через наклонную черту общая и нижняя облачность в баллах и высота нижней границы облаков в метрах; квадратными скобками обозначены формы облаков: Ci - перистые, Cs - перисто-слоистые, Cc - перисто-кучевые, Ac - высококучевые, As - высокослоистые, Sc - слоисто-кучевые, Ns - слоисто-дождевые, Cu - кучевые, Cb - кучево-дождевые. Подробнее классификацию облаков см. в Атласе облаков (PDF).
T - Температура воздуха - температура, измеренная на высоте 2 м над землей.
Td - Температура точки росы - температура, при понижении до которой содержащийся в воздухе водяной пар достигнет насыщения.
f - Относительная влажность воздуха - влажноcть воздуха, измеренная на высоте 2 м над землей.
Te - Эффективная температура - температура, которую ощущает одетый по сезону человек в тени. Характеристика душности погоды. При расчете учитывается влияние влажности воздуха и скорости ветра на теплоощущения человека.
Tes - Эффективная температура на солнце - температура, которую ощущает человек, с поправкой на солнечный нагрев. Характеристика знойности погоды. Зависит от высоты солнца над горизонтом, облачности и скорости ветра. Ночью, в пасмурную погоду, а также при ветре 12 м/с и более поправка равна нулю.
P - Атмосферное давление - приведенное к уровню моря атмосферное давление.
Po - Атмосферное давление - измеренное на уровне метеостанции атмосферное давление.
Tmin - Минимальная температура - минимум температуры воздуха на высоте 2 м над землей.
Tmax - Максимальная температура - максимум температуры воздуха на высоте 2 м над землей.
R - Количество осадков - Количество выпавших осадков за период времени, мм. При наведении курсора мыши на число - период времени, за который выпало указанное количество осадков.
R24 - Количество осадков - Количество выпавших осадков за 24 часа, мм.
S - Снежный покров - Высота снежного покрова, см. При наведении курсора мыши на число - состояние снежного покрова и степень покрытия местности в баллах.